Hourly Data Report for October 20, 2014

All times are specified in Local Standard Time (LST). Add 1 hour to adjust for Daylight Saving Time where and when it is observed.

PENTICTON A
BRITISH COLUMBIA

49°27'45.000" N
119°36'08.000" W
344.40 m
1126146
71889
YYF

Download Data

Hourly Data (October 2014)
Hourly Data Report for October 20, 2014
Temp Definition
°C
Dew Point Temp Definition
°C
Rel Hum Definition
%
Wind Dir Definition
10's deg

Wind Spd Definition
km/h
Visibility Definition
km
Stn Press Definition
kPa
Hmdx Definition


Wind Chill Definition


Weather Definition


TIME
00:00 Legend Double Dagger 13.9 8.8 71 36 2 24.1 96.53     LegendNANA
01:00 Legend Double Dagger 14.4 9.3 71 17 18 24.1 96.55     Clear
02:00 Legend Double Dagger 12.9 9.4 79 36 1 24.1 96.57     LegendNANA
03:00 Legend Double Dagger 13.6 8.7 72 19 11 24.1 96.53     LegendNANA
04:00 Legend Double Dagger 11.0 7.2 77 34 4 24.1 96.52     Mostly Cloudy
05:00 Legend Double Dagger 10.4 7.7 83 5 3 24.1 96.52     LegendNANA
06:00 Legend Double Dagger 9.8 7.8 87 36 3 24.1 96.52     LegendNANA
07:00 Legend Double Dagger 10.0 8.1 88 34 4 24.1 96.55     Mostly Cloudy
08:00 Legend Double Dagger 11.4 9.0 85 31 6 24.1 96.57     LegendNANA
09:00 Legend Double Dagger 12.9 9.4 79 23 7 24.1 96.55     LegendNANA
10:00 Legend Double Dagger 13.5 8.8 73 16 20 24.1 96.58     Rain Showers
11:00 Legend Double Dagger 11.9 10.0 88 19 22 16.1 96.53     Rain Showers
12:00 Legend Double Dagger 13.6 10.3 80 14 10 24.1 96.50     LegendNANA
13:00 Legend Double Dagger 13.5 10.3 81 15 17 24.1 96.52     Cloudy
14:00 Legend Double Dagger 14.0 10.5 79 22 14 24.1 96.61     LegendNANA
15:00 Legend Double Dagger 13.3 10.7 84 19 5 24.1 96.59     Rain Showers
16:00 Legend Double Dagger 12.9 11.2 89 21 18 24.1 96.56     Rain Showers
17:00 Legend Double Dagger 13.2 10.8 85 18 25 24.1 96.52     LegendNANA
18:00 Legend Double Dagger 13.2 10.4 83 2 18 24.1 96.45     LegendNANA
19:00 Legend Double Dagger 13.7 10.4 80 18 17 24.1 96.58     Cloudy
20:00 Legend Double Dagger 13.4 10.6 83 17 22 24.1 96.54     LegendNANA
21:00 Legend Double Dagger 13.5 10.3 81 17 26 24.1 96.60     LegendNANA
22:00 Legend Double Dagger 13.6 9.5 76 18 21 24.1 96.64     Cloudy
23:00 Legend Double Dagger 13.8 9.1 73 19 25 24.1 96.63     LegendNANA

Notes on Data Quality.

Legend

  • E = Estimated
  • M = Missing
  • NA = Not Available
  • ‡ = Partner data that is not subject to review by the National Climate Archives
Date modified: